This is the latest recevied weather packets stored in our database for station/object YD2CLX-13. If no packets are shown the sender has not sent any weather packets the latest 10 day(s).
| Time | Temp. | Humidity | Pressure | Rain* | Wind** | Luminosity | Snow |
|---|---|---|---|---|---|---|---|
| 1777856198 | 15° C | 71% | 798.5 hPa | 0 mm | - | - | - |
| 1777855591 | 14.44° C | 72% | 798.6 hPa | 0 mm | - | - | - |
| 1777854984 | 14.44° C | 71% | 798.5 hPa | 0 mm | - | - | - |
| 1777854377 | 15.56° C | 71% | 798.4 hPa | 0 mm | - | - | - |
| 1777853161 | 15° C | 71% | 798.2 hPa | 0 mm | - | - | - |
| 1777852546 | 12.22° C | 71% | 798.1 hPa | 0 mm | - | - | - |
| 1777851314 | 10° C | 72% | 797.9 hPa | 0 mm | - | - | - |
| 1777850696 | 9.44° C | 72% | 797.9 hPa | 0 mm | - | - | - |
| 1777850080 | 8.89° C | 72% | 797.8 hPa | 0 mm | - | - | - |
| 1777849465 | 8.89° C | 72% | 797.7 hPa | 0 mm | - | - | - |
| 1777848850 | 8.89° C | 72% | 797.7 hPa | 0 mm | - | - | - |
| 1777847620 | 8.89° C | 72% | 797.6 hPa | 0 mm | - | - | - |
| 1777847005 | 8.33° C | 72% | 797.7 hPa | 0 mm | - | - | - |
| 1777846390 | 8.89° C | 72% | 797.6 hPa | 0 mm | - | - | - |
| 1777845775 | 8.89° C | 72% | 797.4 hPa | 0 mm | - | - | - |
| 1777845160 | 8.89° C | 72% | 797.3 hPa | 0 mm | - | - | - |
| 1777844545 | 8.89° C | 72% | 797.3 hPa | 0 mm | - | - | - |
| 1777843929 | 8.89° C | 72% | 797.4 hPa | 0 mm | - | - | - |
| 1777843312 | 9.44° C | 72% | 797.3 hPa | 0 mm | - | - | - |
| 1777842696 | 9.44° C | 72% | 797.4 hPa | 0 mm | - | - | - |
| 1777842082 | 9.44° C | 73% | 797.3 hPa | 0 mm | - | - | - |
| 1777841467 | 9.44° C | 72% | 797.2 hPa | 0 mm | - | - | - |
| 1777840851 | 9.44° C | 72% | 797.3 hPa | 0 mm | - | - | - |
| 1777840237 | 9.44° C | 72% | 797.4 hPa | 0 mm | - | - | - |
| 1777839621 | 8.89° C | 72% | 797.3 hPa | 0 mm | - | - | - |
* Rain latest hour (hover to see other rain measurements)
** Current wind speed in m/s (hover to see current wind gust speed)